Location: *
(44.3925°N, 5.4708°E)
Time: 16:04:47
(UTC+00:00)

BREEZE-M DEB (TANK) - Pass Details

Date: 18 September 2019
Orbit: 675 x 22254 km, 51.1° (Epoch: 21 October)

Event Time Altitude Azimuth Distance (km) Brightness Sun altitude
Rises 19:19:27 0° 289° (WNW) 3,032 7.9 -17.5°
Reaches altitude 10° 19:21:15 10° 297° (WNW) 2,216 6.7 -17.8°
Maximum altitude 19:25:24 49° 14° (NNE) 1,306 4.2 -18.5°
Enters shadow 19:31:32 20° 83° (E) 3,565 5.9 -19.5°
